Regional Weather Roundup
Issued by NWS

Home | Current Version | Previous Version | Text Only | Print | Product List | Glossary On
Versions: 1 2 3 4 5 6 7 8 9 10 11 12 13 14 15 16 17 18 19 20 21 22 23 24 25 26 27 28 29 30 31 32 33 34 35 36 37 38 39 40 41 42 43 44 45 46 47 48 49 50
000
ASUS43 KDTX 090310
RWRMI
MICHIGAN HOURLY REGIONAL WEATHER ROUNDUP
NATIONAL WEATHER SERVICE DETROIT/PONTIAC MI
ISSUED BY NATIONAL WEATHER SERVICE GRAND RAPIDS MI
1000 PM EST THU DEC 08 2016

NOTE: "FAIR" INDICATES FEW OR NO CLOUDS BELOW 12,000 FEET WITH NO
SIGNIFICANT WEATHER AND/OR OBSTRUCTION TO VISIBILITY.

MIZ047>049-052>055-059>063-066>070-074>076-081>083-090400-
SOUTHEAST LOWER MICHIGAN

CITY           SKY/WX    TMP DP  RH WIND       PRES   REMARKS
ADRIAN         CLOUDY    22  18  85 W13       30.27R WCI  10
ALMA           PTCLDY    27  25  90 W7        30.20S WCI  20
ANN ARBOR      FLURRIES  24  20  84 SW13      30.22S WCI  12
BAD AXE        PTCLDY    27  18  67 NW9       30.13R WCI  18
DETROIT CITY   FLURRIES  27  22  81 W9        30.21R WCI  18
DETROIT        CLOUDY    26  20  77 SW17      30.23S WCI  13
FLINT          CLOUDY    28  24  85 W13       30.19R WCI  17
GROSSE ILE     PTCLDY    24  19  81 W14G21    30.22S WCI  12
HILLSDALE      CLOUDY    21  18  86 W12G17    30.24R WCI   9
HOWELL         LGT SNOW  27  23  84 W12       30.19S WCI  17

CITY           SKY/WX    TMP DP  RH WIND       PRES   REMARKS
JACKSON        CLOUDY    23  19  85 SW14      30.23S WCI  11
LANSING        SNOW      27  23  85 W13       30.22S VSB 1/2 WCI  16
MASON          LGT SNOW  27  24  88 W8        30.22R WCI  19
MONROE         CLOUDY    24  19  82 W14       30.25S WCI  12
MT. CLEMENS    FLURRIES  28  23  81 W12       30.17R WCI  18
PONTIAC        LGT SNOW  26  23  88 W12       30.17R FOG     WCI  16
PORT HOPE        N/A     30  21  69 NW22G31   30.10R WCI  17
PORT HURON     PTCLDY    27  23  86 W6        30.16R WCI  20
TRI CITIES     CLEAR     26  24  92 W8        30.19R WCI  18
YPSILANTI      CLOUDY    26  21  81 W18       30.23R WCI  13
$$
MIZ043>046-050>051-056>058-064>065-071>073-077>080-090400-
SOUTHWEST LOWER MICHIGAN

CITY           SKY/WX    TMP DP  RH WIND       PRES   REMARKS
BATTLE CREEK   CLOUDY    25  23  92 W10       30.25S WCI  15
BENTON HARBOR  FLURRIES  30  19  63 W14G24    30.31S WCI  19
BIG RAPIDS     FLURRIES  26  24  91 W5        30.19R WCI  20
COLDWATER      FLURRIES  21  18  88 SW12      30.27S WCI   9
HOLLAND        LGT SNOW  31  23  72 W9        30.26S WCI  23
GRAND RAPIDS   FLURRIES  28  22  78 W8        30.24R WCI  20
KALAMAZOO      LGT SNOW  26  22  84 W12       30.27S FOG     WCI  16
MARSHALL       CLOUDY    24  21  89 SW7       30.25S WCI  16
MOUNT PLEASANT CLEAR     26  23  88 W6        30.18R WCI  19
MUSKEGON       FLURRIES  33  23  66 NW20G28   30.25R WCI  21
STURGIS        FLURRIES  21  17  87 W12       30.29S WCI   9
$$
MIZ016>042-090400-
NORTHERN LOWER MICHIGAN

CITY           SKY/WX    TMP DP  RH WIND       PRES   REMARKS
ALPENA         FLURRIES  25  21  85 NW3       30.12R
BEAVER ISLAND  MOCLDY    28  20  72 NW16G22   30.17S WCI  16
BELLAIRE       FLURRIES  28  25  90 CALM      30.18R
CADILLAC       FLURRIES  24  20  88 W6        30.14R WCI  16
CHARLEVOIX     CLOUDY    30  20  66 NW23G30   30.19R WCI  17
GAYLORD        CLOUDY    25  20  81 W3        30.10S
HOUGHTON LAKE  CLOUDY    24  21  88 NW8       30.15R WCI  15
MANISTEE       FLURRIES  30  23  75 NW16G29   30.22R WCI  19
OSCODA         CLEAR     22  14  71 W7        30.13R WCI  14
PELLSTON       LGT SNOW  27  20  75 N15G21    30.15R WCI  15
TRAVERSE CITY  PTCLDY    30  24  78 NW7       30.18R WCI  23
LUDINGTON      LGT SNOW  28  28  96 NW8       30.22R WCI  20
$$
MIZ007>008-015-090400-
EASTERN UPPER MICHIGAN

CITY           SKY/WX    TMP DP  RH WIND       PRES   REMARKS
KINROSS        CLOUDY    21  13  71 N6        30.14R WCI  13
MACKINAC ISLAN LGT SNOW  24  20  86 N10       30.14R WCI  13
NEWBERRY       FLURRIES  23  21  93 W5        30.15R WCI  16
S. S. MARIE    CLEAR     22  12  65 N7        30.13R WCI  13
$$
MIZ004>006-011>014-085-090400-
CENTRAL UPPER MICHIGAN

CITY           SKY/WX    TMP DP  RH WIND       PRES   REMARKS
MANISTIQUE     FLURRIES  23  23  98 W8        30.19R WCI  14
ESCANABA       CLEAR     23  17  78 W9        30.24R WCI  13
MENOMINEE      CLEAR     25  18  74 NW7       30.28R WCI  17
SAWYER-GWINN   LGT SNOW  19  16  86 NW7       30.20R WCI  10
$$
MIZ001>003-009>011-084-090400-
WESTERN UPPER MICHIGAN

CITY           SKY/WX    TMP DP  RH WIND       PRES   REMARKS
IRON MOUNTAIN  CLOUDY    22  12  65 NW16      30.23R WCI   8
HOUGHTON       LGT SNOW  21  14  74 NW13      30.25R WCI   9
COPPER HARBOR    N/A     27  19  72 NE23G30   30.24S WCI  12
IRONWOOD       LGT SNOW  20  14  77 NW13      30.32R WCI   7
$$

ABBREVIATIONS USED IN REMARKS
   TC - TEMPERATURE IN CELSIUS
  WCI - WIND CHILL INDEX
   HX - HEAT INDEX
  VSB - VISIBILITY





USA.gov is the U.S. government's official web portal to all federal, state and local government web resources and services.